Regional Weather Roundup
Issued by NWS

Home | Current Version | Previous Version | Text Only | Print | Product List | Glossary On
Versions: 1 2 3 4 5 6 7 8 9 10 11 12 13 14 15 16 17 18 19 20 21 22 23 24 25 26 27 28 29 30 31 32 33 34 35 36 37 38 39 40 41 42 43 44 45 46 47 48 49 50
000
ASCA44 KEWX 230020
RWRMX

LATIN AMERICA AND CARIBBEAN REGIONAL WEATHER ROUNDUP
NATIONAL WEATHER SERVICE AUSTIN/SAN ANTONIO TX
600 PM CST THU FEB 22 2018

NOTE: "FAIR" INDICATED FEW OR NO CLOUDS BELOW 12,000 FEET WITH NO
SIGNIFICANT WEATHER AND/OR OBSTRUCTIONS TO VISIBILITY.

BAJA CALIFORNIA

CITY           SKY/WX    TMP DP  RH WIND       PRES   REMARKS
LORETO         PTSUNNY   64  55  72 NE18      30.09F
LA PAZ         MOSUNNY   68  48  49 N16       30.11F
MEXICALI       MOSUNNY   64  27  24 W7        30.12F
TIJUANA        PTSUNNY   55  43  62 W7        30.23F

NORTHWESTERN MEXICO

CITY           SKY/WX    TMP DP  RH WIND       PRES   REMARKS
CULIACAN       PTSUNNY   73  48  40 W7        30.03R
DURANGO        CLOUDY    68  34  28 SW20      30.24R
GUAYMAS        MOSUNNY   68  50  52 W17       30.05S
HERMOSILLO     SUNNY     72  32  23 W10       30.12S
CD. JUAREZ     MOSUNNY   61  21  21 SE6       30.07S
LOS MOCHIS     CLOUDY    66  39  37 NW21      30.09R
OBREGON        PTSUNNY   68  45  42 W6        30.05S

NORTHEASTERN MEXICO

CITY           SKY/WX    TMP DP  RH WIND       PRES   REMARKS
CHIHUAHUA      PTSUNNY   75  12   9 SW18      30.04R
MATAMOROS      CLOUDY    70  63  78 E8        30.09S
MONCLOVA       MOCLDY    63  48  59 E12       30.06
MONTERREY      LGT RAIN  54  52  94 SW6       30.14R VSB 3/4
NUEVO LAREDO   CLOUDY    57  50  77 E7        30.11F
PIEDRAS NEGRAS CLOUDY    57  39  51 CALM      30.13F
REYNOSA        CLOUDY   N/A N/A N/A N5          N/A
SALTILLO       PTCLDY    63  54  72 NW12      30.21S
TORREON        PTSUNNY   82  39  21 NW5       30.03S
CD. VICTORIA   MOCLDY    79  64  61 E13       30.03S

WESTERN MEXICO

CITY           SKY/WX    TMP DP  RH WIND       PRES   REMARKS
AGUASCALIENTES PTSUNNY   77  32  19 SW12      30.22S
COLIMA         MOSUNNY   77  68  73 SW17      30.07R
DEL BAJIO      PTCLDY   N/A N/A N/A S5        30.24S
GUADALAJARA    PTSUNNY   75  50  41 W6        30.15R
MANZANILLO     MOSUNNY   81  72  74 W12       29.95S
MAZATLAN       CLOUDY    73  54  49 NW7       30.01S
P. VALLARTA    PTSUNNY   77  66  69 S12       29.99S
URUAPAN        SUNNY     73  52  46 E9        30.19R
ZACATECAS      PTSUNNY  N/A N/A N/A W12       30.28R

CENTRAL MEXICO

CITY           SKY/WX    TMP DP  RH WIND       PRES   REMARKS
CUERNAVACA       N/A    N/A N/A N/A MISG        N/A
MEXICO CITY    MOCLDY    72  43  35 SE18      30.27R
MORELIA        PTCLDY    77  46  33 S9        30.18S
POZA RICA      CLEAR     79  66  65 E9        30.08R
PUEBLA         MOCLDY    72  37  28 SW15      30.28R
QUERETARO      PTCLDY    73  48  40 NE20      30.24R
S. LUIS POTOSI MOCLDY    70  50  49 E21       30.22R
TAMPICO        PTCLDY    77  73  88 MISG      30.05R
TOLUCA         TSTM      57  48  72 SW9       30.36R

SOUTHERN MEXICO

CITY           SKY/WX    TMP DP  RH WIND       PRES   REMARKS
ACAPULCO       CLEAR     82  72  69 W10       29.91R
B. DE HUATULCO CLEAR    N/A N/A N/A CALM      29.94R
OAXACA         MOCLDY    81  39  22 SE8       30.15R
P. ESCONDIDO   CLEAR     81  72  74 SW9       30.00R
ZIHUATANEJO    SUNNY     84  73  70 SW8       29.92S HX  91

YUCATAN PENINSULA

CITY           SKY/WX    TMP DP  RH WIND       PRES   REMARKS
CAMPECHE       PTCLDY    86  72  62 E17G29    29.98R HX  92
CANCUN         PTCLDY    73  72  94 CALM      30.14S
CHETUMAL       PTCLDY    81  72  74 E6        30.07R
CD. DEL CARMEN CLEAR     86  68  54 E8        29.98R
COZUMEL        PTCLDY    79  72  78 E7        30.11S
MERIDA         MOCLDY    84  68  58 NE5       30.05R
MINATITLAN     PTCLDY    79  68  69 N12       29.97R
TAPACHULA      PTCLDY    84  72  65 SW2       29.89R
TUX. GUTIERREZ PTCLDY    81  66  61 NW24      29.93
VILLAHERMOSA   CLEAR     84  68  58 NE9       29.98R

CENTRAL AMERICA

CITY           SKY/WX    TMP DP  RH WIND       PRES   REMARKS
BELIZE CITY    PTCLDY    77  73  88 E3        30.05S
MANAGUA        PTCLDY    73  70  88 E12       29.92R

CARIBBEAN

CITY           SKY/WX    TMP DP  RH WIND       PRES   REMARKS
ARUBA          PTCLDY    77  72  83 E13       29.97S
CURACAO        LGT RAIN  77  70  78 E14       30.00S
KINGSTON       PTCLDY    82  68  61 W10       30.03S
NASSAU         MOCLDY    75  68  78 NE6       30.31R
SAN JUAN       MOCLDY    75  70  83 E20G26    30.15R
SANTO DOMINGO  PTCLDY    75  68  78 NE7       30.12R
ST. CROIX      CLEAR     75  64  69 NE14G22   30.14
ST. KITTS      PTCLDY    77  64  65 NE21      30.12R
ST. MAARTEN    PTCLDY    77  64  65 E14       30.15R
ST. THOMAS     MOCLDY    75  70  83 NE13      30.14

$$





USA.gov is the U.S. government's official web portal to all federal, state and local government web resources and services.